www.pogodaiklimat.ru

Погода и климат >> Архив погоды >> Швейцария >> Букс-Зур


ПОГОДА в Букс-Зуре

  • Прогноз погоды в Букс-Зуре
  • Монитор погоды в Букс-Зуре

АРХИВ ПОГОДЫ в Букс-Зуре

Время (UTC), дата Ветер
(напр.,м/с)
 
Видим.   Явления Облачность Т
(С)
Тd
(С)
f
(%)
Тe
(С)
Тes
(С)
Комфортность P
(гПа)
Po
(гПа)
Тmin
(С)
Tmax
(С)
R
(мм)
R24
(мм)
S
(см)
19 8.09 З 1
{4}
н/о н/о +10.9 +10.1 95 +10 +10 1018.7 972.6 0.3
20 8.09 Ю 2
{4}
н/о н/о +10.8 +9.3 90 +9 +9 1018.9 972.8 0.1
21 8.09 ЮЗ 1
{5}
3000 м дымка {дождь} 10/10 840 м
[]
+10.5 +9.4 93 +10 +10 1019.0 972.8
22 8.09 ЮЗ 1
{3}
н/о н/о +10.2 +9.1 93 +10 +10 1019.0 972.8
23 8.09 З 1
{2}
н/о н/о +10.2 +9.1 93 +11 +11 1018.8 972.6
00 9.09 штиль 0
{5}
4000 м дымка {дождь} 10/10 1440 м
[]
+10.1 +9.3 95 +9 +9 1018.7 972.5
01 9.09 ЮЗ 1
{2}
н/о н/о +10.3 +8.9 91 +10 +10 1018.7 972.5
02 9.09 ЮЗ 1
{2}
н/о н/о +10.3 +9.1 92 +11 +11 1018.7 972.5
03 9.09 штиль 0
{2}
3000 м дымка {дождь} 10/10 420 м
[]
+10.1 +9.3 95 +9 +9 1018.5 972.3
04 9.09 З 1
{5}
н/о н/о +9.9 +8.8 93 +9 +9 1018.6 972.4
05 9.09 З 1
{2}
н/о н/о +9.6 +8.6 93 +9 +9 1018.8 972.5
06 9.09 З 1
{5}
8000 м дымка 5/5 1320 м
[]
+10.3 +8.9 91 +10 +10 1018.8 972.6 +9.1
07 9.09 ЮЗ 1
{3}
н/о н/о +10.8 +8.8 87 +10 +10 1018.5 972.4
08 9.09 ЮЗ 2
{3}
н/о н/о +12.4 +9.0 80 +12 +12 1018.3 972.5
09 9.09 ЮЗ 2
{5}
12 км мгла 6/6 1320 м
[]
+13.4 +7.3 67 +13 +16 1017.9 972.3
10 9.09 ЮЗ 2
{4}
н/о н/о +14.4 +7.0 61 +14 +14 1017.5 972.0
11 9.09 С 2
{4}
н/о н/о +15.7 +7.5 58 +16 +16 1016.5 971.3
12 9.09 ЮЗ 2
{5}
18 км 6/6 1440 м
[]
+16.6 +6.3 51 +17 +22 1016.0 971.0
13 9.09 В 1
{3}
н/о н/о +15.6 +4.7 48 +17 +17 1015.6 970.4
14 9.09 С 2
{5}
н/о н/о +16.5 +5.1 47 +17 +17 1014.7 969.7
15 9.09 СВ 1
{5}
18 км 9/9 1140 м
[]
+16.3 +6.6 53 +18 +18 1014.5 969.5
16 9.09 ЮВ 1
{2}
н/о н/о +16.4 +5.8 49 +17 +17 1014.2 969.2
17 9.09 СВ 1
{3}
н/о н/о +14.8 +6.9 59 +16 +16 1014.7 969.4
18 9.09 Ю 1
{5}
15 км 6/6 1140 м
[]
+13.4 +8.6 73 +14 +14 1015.1 969.6 +17.0
19 9.09 штиль 0
{1}
н/о н/о +11.5 +9.2 86 +11 +11 1015.8 969.9
20 9.09 штиль 0
{1}
н/о н/о +11.0 +8.8 86 +10 +10 1016.0 970.1
21 9.09 штиль 0
{1}
6000 м дымка 10/0 2000 м
[]
+9.7 +8.8 94 +9 +9 1016.1 969.9
22 9.09 Ю 1
{1}
н/о н/о +10.2 +8.3 88 +11 +11 1016.1 970.0
23 9.09 штиль 0
{1}
н/о н/о +9.7 +8.3 91 +9 +9 1016.1 969.9
00 10.09 З 1
{2}
6000 м дымка 10/0 2000 м
[]
+9.9 +8.4 90 +10 +10 1016.4 970.3
01 10.09 Ю 1
{1}
н/о н/о +9.6 +8.4 92 +10 +10 1016.6 970.4
02 10.09 ЮЗ 1
{2}
н/о н/о +9.0 +8.2 95 +9 +9 1016.5 970.2
03 10.09 штиль 0
{2}
10 км дымка 4/0 2000 м
[]
+8.9 +8.1 95 +8 +8 1016.3 970.0
04 10.09 штиль 0 н/о н/о +8.8 +8.0 95 +8 +8 1016.1 969.8
05 10.09 В 1
{2}
н/о н/о +9.3 +8.0 92 +10 +10 1015.7 969.5
06 10.09 штиль 0
{2}
10 км дымка 8/0
[]
+9.4 +8.6 95 +9 +9 1016.4 970.2 +8.2
07 10.09 В 1
{2}
н/о н/о +11.3 +9.1 86 +12 +12 1016.4 970.5
08 10.09 СВ 2
{4}
н/о н/о +13.4 +9.8 79 +13 +13 1016.3 970.7
09 10.09 В 2
{5}
14 км дымка 3/3 1440 м
[]
+14.4 +9.4 72 +14 +19 1016.4 971.0
10 10.09 С 2
{5}
н/о н/о +17.0 +10.1 64 +17 +17 1016.1 971.1
11 10.09 СВ 2
{4}
н/о н/о +18.4 +10.1 58 +19 +19 1015.6 970.9
12 10.09 СВ 2
{6}
21 км 6/0
[]
+20.0 +8.6 48 +22 +30 комфорт 1015.6 971.1
13 10.09 СВ 2
{5}
н/о н/о +20.0 +8.1 46 +22 +22 комфорт 1015.6 971.1
14 10.09 СВ 2
{5}
н/о н/о +20.2 +7.9 45 +22 +22 комфорт 1015.2 970.8
15 10.09 СВ 2
{6}
18 км 3/0
[]
+20.9 +7.7 43 +23 +27 комфорт 1015.3 971.0
16 10.09 С 2
{4}
н/о н/о +20.7 +8.2 45 +23 +23 комфорт 1015.7 971.3
17 10.09 СВ 1
{3}
н/о н/о +19.6 +8.4 48 +22 +22 комфорт 1016.3 971.7
18 10.09 ЮЗ 1
{6}
15 км ясно +15.6 +10.7 73 +17 +17 1017.7 972.4 +21.2
19 10.09 Ю 1
{2}
н/о н/о +13.5 +10.7 83 +14 +14 1019.1 973.4
20 10.09 Ю 1
{2}
н/о н/о +13.0 +9.9 81 +14 +14 1019.8 974.0
21 10.09 Ю 1
{3}
14 км дымка 4/0 2000 м
[]
+12.4 +10.1 86 +13 +13 1020.1 974.2
22 10.09 Ю 1
{2}
н/о н/о +11.9 +10.1 89 +13 +13 1020.5 974.5
23 10.09 Ю 1
{2}
н/о н/о +11.0 +9.9 93 +11 +11 1020.7 974.5
00 11.09 Ю 1
{3}
10 км дымка 4/0
[]
+10.5 +9.6 94 +11 +11 1021.2 974.9
01 11.09 Ю 1
{2}
н/о н/о +10.1 +9.3 95 +10 +10 1021.6 975.3
02 11.09 Ю 1
{2}
н/о н/о +9.8 +8.9 94 +10 +10 1022.1 975.7
03 11.09 ЮЗ 1
{2}
12 км дымка ясно +9.6 +8.8 95 +10 +10 1022.4 975.9
04 11.09 В 1
{2}
н/о н/о +8.8 +8.2 96 +9 +9 1023.1 976.5
05 11.09 ЮЗ 1
{2}
н/о н/о +9.2 +8.2 93 +9 +9 1023.9 977.3
06 11.09 штиль 0
{2}
10 км дымка ясно +9.5 +8.4 93 +9 +9 1024.6 978.0 +8.8
07 11.09 Ю 1
{2}
н/о н/о +11.4 +9.2 86 +12 +12 1024.7 978.4
08 11.09 штиль 0
{2}
н/о н/о +13.5 +9.7 78 +13 +13 1024.4 978.5
09 11.09 З 1
{2}
10 км мгла 1/0
[]
+16.2 +10.3 68 +17 +25 1024.5 979.0
10 11.09 Ю 1
{3}
н/о н/о +17.8 +11.0 64 +19 +19 1023.9 978.7
11 11.09 СЗ 1
{2}
н/о н/о +20.0 +11.7 59 +23 +23 комфорт 1023.5 978.7
12 11.09 З 1
{4}
12 км мгла 6/6 1440 м
[]
+20.6 +11.1 54 +24 +29 комфорт 1023.3 978.6
13 11.09 С 2
{3}
н/о н/о +20.9 +10.8 52 +24 +24 комфорт 1023.4 978.7
14 11.09 СЗ 3
{6}
н/о н/о +20.0 +10.7 55 +22 +22 комфорт 1023.9 979.0
15 11.09 СЗ 2
{6}
18 км 10/0
[]
+19.5 +9.8 53 +21 +21 комфорт 1024.5 979.5
16 11.09 З 2
{5}
н/о н/о +19.3 +9.1 52 +21 +21 комфорт 1025.2 980.2
17 11.09 ЮЗ 1
{4}
н/о н/о +18.3 +10.4 60 +20 +20 1025.8 980.6
18 11.09 Ю 1
{6}
21 км 10/0 2000 м
[]
+17.0 +12.0 72 +19 +19 1026.5 981.1 +20.9
19 11.09 Ю 1
{2}
н/о н/о +15.8 +12.6 81 +17 +17 1027.8 982.1
20 11.09 штиль 0
{2}
н/о н/о +14.9 +13.0 88 +15 +15 1028.4 982.5
21 11.09 ЮЗ 1
{2}
18 км 10/0 2000 м
[]
+14.7 +12.9 89 +16 +16 1028.6 982.7
22 11.09 штиль 0
{1}
н/о н/о +13.7 +12.5 92 +13 +13 1029.0 982.9
23 11.09 З 1
{2}
н/о н/о +11.9 +11.2 95 +12 +12 1029.6 983.2
00 12.09 ЮЗ 1
{2}
12 км дымка 1/0
[]
+12.3 +11.3 94 +12 +12 1030.0 983.6
01 12.09 Ю 1
{2}
н/о н/о +11.8 +10.9 94 +12 +12 1030.6 984.1
02 12.09 штиль 0
{2}
н/о н/о +11.5 +10.7 95 +11 +11 1030.8 984.3
03 12.09 ЮЗ 1
{2}
10 км дымка ясно +10.8 +10.0 95 +11 +11 1031.2 984.5
04 12.09 Ю 1
{1}
н/о н/о +10.0 +9.3 95 +10 +10 1031.4 984.6
05 12.09 штиль 0
{1}
н/о н/о +10.0 +9.4 96 +9 +9 1031.7 984.9
06 12.09 штиль 0
{2}
12 км дымка 1/0
[]
+10.6 +10.0 96 +10 +10 1032.0 985.3 +9.8
07 12.09 штиль 0
{1}
н/о н/о +12.9 +11.0 88 +12 +12 1031.8 985.5
08 12.09 З 1
{2}
н/о н/о +15.1 +11.2 78 +16 +16 1032.0 986.0
09 12.09 СВ 1
{2}
12 км дымка 1/0
[]
+17.3 +12.1 71 +19 +28 1031.7 986.1
10 12.09 ЮВ 1
{2}
н/о н/о +19.7 +11.0 57 +23 +23 комфорт 1031.5 986.3
11 12.09 СВ 1
{3}
н/о н/о +21.4 +8.1 42 +22 +22 комфорт 1031.0 986.1
12 12.09 В 2
{3}
18 км 1/0
[]
+21.9 +9.2 44 +23 +34 комфорт 1030.5 985.7
13 12.09 В 2
{4}
н/о н/о +23.0 +9.0 41 +24 +24 комфорт 1030.1 985.4
14 12.09 ЮВ 1
{3}
н/о н/о +23.9 +10.0 41 +25 +25 комфорт 1029.7 985.2
15 12.09 В 1
{4}
н/о н/о +24.0 +11.1 44 +25 +25 комфорт 1029.3 984.8
16 12.09 В 1
{3}
н/о н/о +23.8 +9.7 41 +25 +25 комфорт 1029.1 984.6
17 12.09 СЗ 1
{2}
н/о н/о +23.4 +8.6 39 +25 +25 комфорт 1029.6 985.0
18 12.09 Ю 1
{4}
50 км ясно +19.5 +12.8 65 +22 +22 комфорт 1030.5 985.3 +24.3
19 12.09 Ю 1
{2}
н/о н/о +16.9 +12.4 75 +18 +18 1031.6 985.9
20 12.09 Ю 2
{3}
н/о н/о +15.8 +11.9 78 +16 +16 1032.0 986.1
21 12.09 штиль 0
{3}
35 км ясно +14.5 +12.0 85 +14 +14 1032.4 986.3
22 12.09 штиль 0
{2}
н/о н/о +13.5 +11.7 89 +13 +13 1032.8 986.5
23 12.09 штиль 0
{2}
н/о н/о +12.9 +11.3 90 +12 +12 1032.7 986.3
00 13.09 штиль 0
{3}
12 км дымка ясно +12.0 +10.9 93 +11 +11 1032.9 986.4
01 13.09 штиль 0 н/о н/о +11.5 +10.7 95 +11 +11 1032.9 986.3
02 13.09 штиль 0 н/о н/о +10.8 +10.3 97 +10 +10 1032.9 986.2
03 13.09 штиль 0 12 км дымка ясно +10.4 +9.9 97 +10 +10 1033.0 986.2
04 13.09 штиль 0 н/о н/о +10.0 +9.5 97 +9 +9 1033.5 986.6
05 13.09 штиль 0 н/о н/о +9.8 +9.4 97 +9 +9 1034.1 987.1
06 13.09 штиль 0 12 км дымка 1/0
[]
+10.6 +9.7 94 +10 +10 1033.7 986.9 +9.8
07 13.09 штиль 0 н/о н/о +12.9 +10.8 87 +12 +12 1033.2 986.8
08 13.09 штиль 0 н/о н/о +15.6 +11.9 79 +15 +15 1033.0 987.0
09 13.09 С 1
{2}
14 км дымка ясно +17.7 +12.3 71 +19 +28 1032.4 986.8
10 13.09 С 1
{2}
н/о н/о +20.5 +13.1 62 +24 +24 комфорт 1031.5 986.4
11 13.09 В 1
{4}
н/о н/о +22.8 +13.3 55 +26 +26 жарко 1030.5 985.8
12 13.09 ЮВ 1
{4}
18 км 4/0
[]
+24.1 +12.5 48 +26 +36 жарко 1029.7 985.2
13 13.09 ЮВ 1
{4}
н/о н/о +24.8 +12.8 47 +27 +27 жарко 1029.1 984.8
14 13.09 СВ 2
{4}
н/о н/о +25.7 +12.9 45 +28 +28 жарко 1028.7 984.5
15 13.09 В 2
{4}
40 км 4/0
[]
+25.8 +13.1 45 +28 +31 жарко 1028.3 984.2
16 13.09 С 3
{4}
н/о н/о +25.6 +13.1 46 +28 +28 жарко 1028.2 984.0
17 13.09 С 2
{5}
н/о н/о +24.3 +13.0 49 +26 +26 жарко 1028.4 984.0
18 13.09 З 1
{5}
50 км 3/0
[]
+21.7 +13.9 61 +25 +25 комфорт 1029.1 984.3 +26.4
19 13.09 ЮВ 1
{2}
н/о н/о +18.6 +15.1 80 +21 +21 комфорт 1029.9 984.6
20 13.09 В 1
{2}
н/о н/о +16.6 +14.7 89 +18 +18 1030.3 984.6
21 13.09 Ю 1
{2}
40 км ясно +16.3 +14.4 89 +18 +18 1030.4 984.7
22 13.09 штиль 0
{2}
н/о н/о +15.6 +14.3 92 +15 +15 1030.9 985.0
23 13.09 ЮВ 1
{2}
н/о н/о +14.3 +13.6 96 +15 +15 1031.1 985.0
00 14.09 В 1
{2}
14 км дымка ясно +14.8 +13.7 93 +16 +16 1031.1 985.1
01 14.09 СВ 1
{2}
н/о н/о +16.1 +13.6 85 +17 +17 1030.4 984.6
02 14.09 штиль 0
{2}
н/о н/о +15.3 +13.4 88 +15 +15 1030.2 984.3
03 14.09 Ю 1
{2}
14 км дымка ясно +15.5 +13.5 88 +17 +17 1029.8 984.0
04 14.09 штиль 0
{2}
н/о н/о +13.8 +12.9 94 +13 +13 1030.1 984.0
05 14.09 штиль 0
{2}
н/о н/о +13.0 +12.5 97 +12 +12 1030.4 984.1
06 14.09 Ю 1
{2}
14 км дымка 4/0
[]
+13.9 +12.6 92 +14 +14 1030.7 984.6 +13.0
07 14.09 Ю 1
{2}
н/о н/о +15.9 +13.5 86 +17 +17 1030.8 985.0
08 14.09 В 2
{4}
н/о н/о +17.8 +13.9 78 +19 +19 1030.7 985.2
09 14.09 В 1
{4}
13 км дымка 5/5 1500 м
[]
+18.2 +14.0 76 +20 +24 1030.3 984.9
10 14.09 В 2
{4}
н/о н/о +20.4 +15.0 71 +24 +24 комфорт 1029.5 984.5
11 14.09 В 2
{4}
н/о н/о +21.1 +14.8 67 +24 +24 комфорт 1028.6 983.7
12 14.09 В 1
{4}
12 км мгла 5/0
[]
+22.7 +15.3 63 +27 +36 душно 1027.4 982.8
13 14.09 СВ 2
{5}
н/о н/о +23.9 +15.9 61 +27 +27 жарко 1026.8 982.4
14 14.09 СВ 2
{5}
н/о н/о +23.9 +15.6 60 +27 +27 жарко 1026.2 981.9
15 14.09 В 2
{5}
13 км мгла 8/0
[]
+24.5 +15.8 58 +28 +30 душно 1025.7 981.5
16 14.09 В 2
{4}
н/о н/о +24.3 +15.0 56 +27 +27 жарко 1025.8 981.5
17 14.09 В 1
{3}
н/о н/о +23.3 +15.4 61 +28 +28 душно 1026.0 981.6
18 14.09 ЮЗ 1
{5}
н/о н/о +20.2 +16.3 78 +25 +25 комфорт 1026.7 981.8 +24.9
19 14.09 штиль 0
{2}
н/о н/о +18.0 +16.2 89 +18 +18 1027.0 981.7
20 14.09 Ю 1
{1}
н/о н/о +16.8 +15.9 94 +18 +18 1027.2 981.7
21 14.09 ЮВ 1
{2}
10 км дымка 5/0
[]
+16.5 +15.4 93 +18 +18 1027.4 981.8
22 14.09 штиль 0
{1}
н/о н/о +15.2 +14.9 98 +15 +15 1027.4 981.6
23 14.09 ЮЗ 1
{2}
н/о н/о +15.0 +14.3 96 +16 +16 1027.1 981.3
00 15.09 штиль 0
{2}
5000 м дымка 3/0
[]
+14.2 +14.0 99 +14 +14 1027.2 981.3
01 15.09 штиль 0
{1}
н/о н/о +13.9 +13.6 98 +13 +13 1027.0 981.0
02 15.09 Ю 1
{1}
н/о н/о +13.9 +13.4 97 +15 +15 1027.0 981.0
03 15.09 штиль 0
{1}
4000 м дымка 10/10 240 м
[]
+13.2 +12.9 98 +13 +13 1027.1 981.0
04 15.09 штиль 0 н/о н/о +14.1 +13.7 97 +14 +14 1026.8 980.9
05 15.09 ЮЗ 1
{1}
н/о н/о +14.5 +14.3 99 +15 +15 1026.9 981.0
06 15.09 штиль 0
{1}
600 м туман ?/? +14.6 +14.3 98 +14 +14 1026.8 981.0 +13.1
07 15.09 З 1
{2}
н/о н/о +15.6 +15.1 97 +17 +17 1026.6 980.9
08 15.09 З 2
{2}
н/о н/о +16.4 +15.2 93 +17 +17 1026.4 980.9
09 15.09 З 1
{3}
900 м туман ?/? +17.3 +15.8 91 +18 +18 1026.3 980.9
10 15.09 З 2
{4}
н/о н/о +20.0 +16.4 80 +23 +23 комфорт 1025.4 980.5
11 15.09 З 2
{3}
н/о н/о +23.3 +17.0 68 +28 +28 душно 1024.2 979.8
12 15.09 СЗ 1
{4}
14 км дымка ясно +25.5 +17.7 62 +30 +42 душно 1023.1 979.1
13 15.09 Ю 2
{5}
н/о н/о +26.6 +16.4 54 +30 +30 душно 1022.2 978.4
14 15.09 ЮЗ 2
{5}
н/о н/о +26.8 +14.6 47 +29 +29 жарко 1021.5 977.8
15 15.09 ЮЗ 2
{5}
14 км мгла 3/3 1140 м
[]
+27.2 +15.7 49 +30 +33 душно 1020.7 977.1
17 15.09 ЮЗ 1
{3}
н/о н/о +25.1 +16.7 60 +29 +29 душно 1020.3 976.4
18 15.09 ЮЗ 1
{5}
20 км ясно +22.2 +17.7 76 +27 +27 душно 1021.0 976.6 +27.4
19 15.09 Ю 1
{2}
н/о н/о +20.1 +17.0 82 +24 +24 комфорт 1021.7 977.0

 

Местоположение метеостанции Букс-Зур (Швейцария): широта 47.38 долгота 8.08 высота над уровнем моря 387 м.

В архиве по умолчанию представлена погода в Букс-Зуре за последнюю неделю. Архивные данные за месяц целиком и за предыдущие месяцы, начиная с января 2011 года, Вы можете получить, выбрав интересующий диапазон дат из раскрывающегося списка и нажав кнопку "Ввод!".


*Определитесь, кто Вы:
робот инопланетянин человек

Внимание! Время в таблицах - всемирное. Для получения местного времени необходимо прибавить поправку, которая равна 1 ч.

Смотрите также архив погоды в соседних городах и на ближайших метеорологических станциях:

Погода в Госгене (Швейцария) (9 км)
Погода в Бругг-Вилдегге (Швейцария) (12 км)
Погода в Рюненберге (Швейцария) (16 км)
Погода в Лауфенбурге (Швейцария) (19 км)
Погода в Институте Пауля Шеррера (Швейцария) (20 км)
Погода в Мозене (Швейцария) (20 км)
Погода в Беромюнстере (Швейцария) (21 км)
Погода в Эгольцвиле (Швейцария) (23 км)
Погода в Лангенбруке (Швейцария) (24 км)
Погода на Бецнау (Швейцария) (24 км)

Пояснения к столбцам:

Ветер - указаны скорость ветра в м/с - средняя за 10 мин, порывы в срок и между сроками (в фигурных скобках) и направление, откуда дует ветер: С - северный, СВ - северо-восточный, В - восточный, ЮВ - юго-восточный, Ю - южный, ЮЗ - юго-западный, З - западный, СЗ - северо-западный.
Видимость - горизонтальная дальность видимости в метрах или километрах. При видимости от 1 до 10 км при отсутствии осадков обычно наблюдается дымка, при ухудшении видимости до 1 км и менее - туман. В сухую погоду видимость может ухудшаться дымом, пылью или мглою.
Явления - указаны атмосферные явления, наблюдавшиеся в срок или в последний час перед сроком; фигурными скобками обозначены явления, наблюдавшиеся между сроками (за 1-3 часа до срока); квадратными скобками обозначены град или гололедные отложения с указанием их диаметра в мм.
Облачность - указаны через наклонную черту общая и нижняя облачность в баллах и высота нижней границы облаков в метрах; квадратными скобками обозначены формы облаков: Ci - перистые, Cs - перисто-слоистые, Cc - перисто-кучевые, Ac - высококучевые, As - высокослоистые, Sc - слоисто-кучевые, Ns - слоисто-дождевые, Cu - кучевые, Cb - кучево-дождевые. Подробнее классификацию облаков см. в Атласе облаков (PDF).
T - Температура воздуха - температура, измеренная на высоте 2 м над землей.
Td - Температура точки росы - температура, при понижении до которой содержащийся в воздухе водяной пар достигнет насыщения.
f - Относительная влажность воздуха - влажноcть воздуха, измеренная на высоте 2 м над землей.
Te - Эффективная температура - температура, которую ощущает одетый по сезону человек в тени. Характеристика душности погоды. При расчете учитывается влияние влажности воздуха и скорости ветра на теплоощущения человека.
Tes - Эффективная температура на солнце - температура, которую ощущает человек, с поправкой на солнечный нагрев. Характеристика знойности погоды. Зависит от высоты солнца над горизонтом, облачности и скорости ветра. Ночью, в пасмурную погоду, а также при ветре 12 м/с и более поправка равна нулю.
P - Атмосферное давление - приведенное к уровню моря атмосферное давление.
Po - Атмосферное давление - измеренное на уровне метеостанции атмосферное давление.
Tmin - Минимальная температура - минимум температуры воздуха на высоте 2 м над землей.
Tmax - Максимальная температура - максимум температуры воздуха на высоте 2 м над землей.
R - Количество осадков - Количество выпавших осадков за период времени, мм. При наведении курсора мыши на число - период времени, за который выпало указанное количество осадков.
R24 - Количество осадков - Количество выпавших осадков за 24 часа, мм.
S - Снежный покров - Высота снежного покрова, см. При наведении курсора мыши на число - состояние снежного покрова и степень покрытия местности в баллах.